User: anonymous   Login
Location: Newark
(54.6833°N, 25.2833°E)
Time: 00:17:13
(UTC+00:00)
Language:

Courier 1B Rocket - Orbit

View from above orbital plane
View from above orbital plane
View from above satellite
View from above satellite

Ground track
Ground track

The orbit data is extracted from the following two-line orbital elements,

1    59U 60013B   19318.28202587  .00000105  00000-0  18562-4 0  9992
2    59  28.2491 248.6258 0189208 271.7568  86.1316 13.52971953917817
Epoch (UTC): 14 November 2019 06:46:07
Eccentricity: 0.0189208
inclination: 28.2491°
perigee height: 920 km
apogee height: 1202 km
right ascension of ascending node: 248.6258°
argument of perigee: 271.7568°
revolutions per day: 13.52971953
mean anomaly at epoch: 86.1316°
orbit number at epoch: 91781

The dashed part of the orbit path shows where the satellite is in the earth's shadow,  

DLR